AO-07 1 07530U 74089B 17285.55931103 -.00000020 00000-0 15144-3 0 9994 2 07530 101.6468 251.9949 0012421 093.8968 022.5885 12.53629196963333 UO-11 1 14781U 84021B 17285.57586047 .00000165 00000-0 26606-4 0 9997 2 14781 097.6844 326.8837 0008841 165.7176 194.4290 14.82941588786743 LO-19 1 20442U 90005G 17285.80786679 .00000019 00000-0 22978-4 0 9992 2 20442 98.5829 221.1625 0012113 155.3145 204.8621 14.32873230448468 HUBBLE 1 20580U 90037B 17285.49814358 .00000840 00000-0 40843-4 0 9994 2 20580 028.4701 312.2992 0002702 000.9766 118.1047 15.08883864307931 MET-2/21 1 22782U 93055A 17285.52756167 .00000030 00000-0 13377-4 0 9993 2 22782 082.5457 290.4623 0023708 101.3370 009.1952 13.83802499217659 AO-27 1 22825U 93061C 17285.81152813 .00000028 00000-0 28483-4 0 9999 2 22825 98.8276 252.9242 0008343 355.9391 4.1721 14.30009303254212 IO-26 1 22826U 93061D 17285.46576937 .00000040 00000-0 32986-4 0 9995 2 22826 098.8218 252.6417 0008710 346.5957 013.4992 14.30339079254097 FO-29 1 24278U 96046B 17285.58909871 -.00000003 00000-0 32357-4 0 9996 2 24278 098.5431 153.1208 0351012 033.2771 328.9915 13.53079317044509 NOAA-15 1 25338U 98030A 17285.61811273 .00000032 00000-0 32547-4 0 9993 2 25338 098.7811 296.7578 0009829 221.6982 138.3449 14.25820372009486 GO-32 1 25397U 98043D 17285.77832185 .00000011 00000-0 23675-4 0 9993 2 25397 98.6196 225.6852 0002029 50.4334 309.7024 14.23630760 523 ISS 1 25544U 98067A 17285.84441990 .00003873 00000-0 65660-4 0 9990 2 25544 51.6419 171.7919 0004573 17.2907 30.3669 15.54156481 80058 NO-44 1 26931U 01043C 17285.08042000 -.00000015 00000-0 26028-4 0 9995 2 26931 067.0503 149.5930 0005819 257.8769 102.1680 14.30477814836994 SO-50 1 27607U 02058C 17284.99849941 .00000086 00000-0 32956-4 0 9995 2 27607 064.5542 128.5968 0035359 040.0084 320.3613 14.75374910796214 CO-55 1 27844U 03031E 17285.57743749 .00000083 00000-0 57349-4 0 9994 2 27844 098.6906 292.8797 0010015 014.5250 345.6214 14.22066096740960 CO-57 1 27848U 03031J 17285.60913851 .00000065 00000-0 49559-4 0 9999 2 27848 098.6997 293.2185 0010082 023.8591 336.3052 14.21677047740853 RS-22 1 27939U 03042A 17285.80750677 .00000181 00000-0 40968-4 0 9993 2 27939 97.9566 66.8778 0012367 207.8351 261.9741 14.66612756750557 NOAA-18 1 28654U 05018A 17285.58351263 .00000025 00000-0 38720-4 0 9996 2 28654 099.1755 310.6272 0015321 102.2162 258.0726 14.12352552638737 CO-58 1 28895U 05043F 17284.68282809 .00000258 00000-0 58435-4 0 9993 2 28895 097.8787 081.7039 0017877 132.3682 227.9038 14.63451917637292 Falconsat-3 1 30776U 07006E 17285.74573879 .00006202 00000-0 19063-3 0 9991 2 30776 35.4371 40.4468 0003644 306.1132 53.9256 15.33086100586306 CO-65 1 32785U 08021C 17285.79437281 .00000415 00000-0 50798-4 0 9993 2 32785 97.5609 304.6632 0014243 134.2290 226.0099 14.87974547512385 AAUSAT2 1 32788U 08021F 17285.58021867 .00001145 00000-0 11225-3 0 9994 2 32788 097.5491 317.0867 0013557 097.6350 262.6411 14.94044332513104 DO-64 1 32789U 08021G 17285.36982479 .00003073 00000-0 21853-3 0 9996 2 32789 097.5472 341.0807 0013854 066.6849 293.5834 15.05318888514391 CO-66 1 32791U 08021J 17285.61047992 .00000691 00000-0 76403-4 0 9994 2 32791 97.5559 309.2076 0014842 119.7554 240.5143 14.90343846512630 RS-30 1 32953U 08025A 17285.79098800 -.00000001 00000-0 -78190-4 0 9993 2 32953 82.5046 166.5386 0019927 30.3967 329.8264 12.43079477426033 PRISM 1 33493U 09002B 17285.90215413 .00000891 00000-0 85190-4 0 9996 2 33493 98.1508 173.2047 0016604 56.0592 304.2212 14.95865223473376 NOAA-19 1 33591U 09005A 17285.52656276 .00000096 00000-0 77437-4 0 9994 2 33591 099.1078 254.1008 0013215 305.3786 054.6149 14.12219142446955 TISAT-1 1 36799U 10035E 17285.83106039 .00000951 00000-0 10335-3 0 9996 2 36799 98.0761 51.0470 0011234 303.9775 56.0374 14.90543130393302 JUGNU 1 37839U 11058B 17285.83466959 .00000335 00000-0 36768-4 0 9993 2 37839 19.9608 97.1203 0019005 40.2690 54.6599 14.12596583310357 SRMSAT 1 37841U 11058D 17285.01495571 .00000331 00000-0 36897-4 0 9997 2 37841 019.9710 146.1803 0011778 284.2418 223.7880 14.10586893309702 AO-71 1 37854U 11061E 17285.51585053 .00003016 00000-0 16625-3 0 9994 2 37854 101.6936 218.7899 0166400 087.5219 274.5030 15.04502761324122 HRBE 1 37855U 11061F 17285.53992247 .00003025 00000-0 16346-3 0 9994 2 37855 101.7067 216.5553 0179706 094.6911 267.4848 15.03471854323958 ALMASAT-1 1 38078U 12006B 17285.81226745 .00032218 38051-5 34464-3 0 9995 2 38078 69.4343 174.7063 0286124 117.5969 245.4573 15.27568230302718 HORYU-2 1 38340U 12025D 17285.61943011 .00000360 00000-0 61064-4 0 9996 2 38340 98.3783 293.6946 0010369 279.8458 80.1579 14.75417630290604 RS-40 1 38735U 12041C 17285.84583906 -.00000003 00000-0 -95372-4 0 9995 2 38735 82.4738 250.8114 0017547 128.9866 231.2780 12.42574804236310 BEESAT-3 1 39134U 13015E 17285.55140434 .00003106 00000-0 15789-3 0 9992 2 39134 064.8662 207.4999 0037170 245.8996 113.8241 15.18300264246917 BEESAT-2 1 39136U 13015G 17285.59160165 .00002694 00000-0 15011-3 0 9990 2 39136 64.8708 219.7376 0033142 266.7457 92.9876 15.15474176247063 ZACUBE-1 1 39417U 13066B 17285.60565198 .00000379 00000-0 54481-4 0 9998 2 39417 097.6179 322.0831 0057910 245.1778 114.3406 14.80789670210158 TRITON-1 1 39427U 13066M 17285.60456738 .00000402 00000-0 72625-4 0 9995 2 39427 097.6372 293.0899 0113585 333.3127 026.2261 14.67534331208079 GOMX-1 1 39430U 13066Q 17285.52297098 .00000478 00000-0 95425-4 0 9998 2 39430 097.6731 275.6605 0152682 032.9617 328.0991 14.58940819206859 LO-74 1 39440U 13066AA 17285.83723484 .00000341 00000-0 55005-4 0 9995 2 39440 97.6206 310.5757 0079196 278.7863 80.4385 14.75530399209446 AO-73 1 39444U 13066AE 17285.66177402 .00000468 00000-0 64581-4 0 9992 2 39444 97.6194 323.3419 0057133 241.2097 118.3372 14.81539238209001 SPROUT 1 39770U 14029E 17285.84127299 .00000887 00000-0 10658-3 0 9993 2 39770 97.8761 24.0899 0007857 307.8697 52.1805 14.86452030183618 DUCHIFAT-1 1 40021U 14033M 17285.75720843 .00000820 00000-0 90851-4 0 9994 2 40021 97.9132 199.0627 0011576 275.7987 84.1911 14.90039635180103 NANOSATCBR1 1 40024U 14033Q 17285.74595999 .00000664 00000-0 75901-4 0 9993 2 40024 97.9084 197.7489 0010891 277.4227 82.5752 14.89343479180048 EO-79 1 40025U 14033R 17285.31841018 .00000617 00000-0 72350-4 0 9996 2 40025 097.9058 196.1849 0011143 282.5316 077.4654 14.88525669179404 DTUSAT-2 1 40030U 14033W 17285.21894308 .00000580 00000-0 68987-4 0 9991 2 40030 097.9019 195.0759 0010544 277.0622 082.9395 14.88143231179345 EO-80 1 40032U 14033Y 17285.73695638 .00000546 00000-0 65407-4 0 9991 2 40032 97.9026 195.5974 0010485 275.5014 84.5007 14.88079324179924 ANTELSAT 1 40034U 14033AA 17285.74407179 .00000388 00000-0 65571-4 0 9991 2 40034 97.8413 165.9265 0057608 275.1188 84.3447 14.73776434178234 VELOX-1 1 40057U 14034E 17285.82341238 .00000520 00000-0 80951-4 0 9996 2 40057 98.1942 27.8463 0011973 46.4378 313.7816 14.77229906177128 DAURIA DX 1 1 40071U 14037C 17285.82243750 .00000209 00000-0 34317-4 0 9994 2 40071 98.3492 41.6355 0009501 42.1345 318.0602 14.81068628176386 UKUBE-1 1 40074U 14037F 17285.78531110 .00000511 00000-0 69113-4 0 9990 2 40074 98.3595 46.0723 0005461 45.7875 314.3798 14.83608916176612 HODOYOSHI-1 1 40299U 14070B 17285.85568208 .00000983 00000-0 45330-4 0 9990 2 40299 97.3980 6.7870 0014514 45.1685 92.1695 15.22500469162841 CHUBUSAT-1 1 40300U 14070C 17285.86190208 .00001149 00000-0 54427-4 0 9997 2 40300 97.3883 3.5720 0022008 52.7196 82.8554 15.21125915162672 QSAT-EOS 1 40301U 14070D 17285.84647030 .00002458 00000-0 10405-3 0 9997 2 40301 97.3821 3.9471 0028570 46.4049 91.7738 15.23769070162748 FIREBIRD FU3 1 40377U 15003B 17285.52402296 .00003997 00000-0 16992-3 0 9991 2 40377 099.1162 132.9247 0134073 333.8768 025.5735 15.16031729148774 FIREBIRD FU4 1 40378U 15003C 17285.64679002 .00003877 00000-0 16478-3 0 9992 2 40378 99.1164 133.1171 0134281 333.3572 26.0797 15.16047207148801 GRIFEX 1 40379U 15003D 17285.56120766 .00002544 00000-0 11639-3 0 9996 2 40379 099.1197 130.2949 0140638 342.7171 016.9292 15.13447196148627 NO-84 1 40654U 15025D 17284.39458724 .00014412 00000-0 25473-3 0 01073 2 40654 054.9957 076.5352 0173211 197.4562 162.0371 15.35760275017556 NO-83 1 40655U 15025E 17284.35288378 .00026966 00000-0 36781-3 0 01213 2 40655 054.9810 044.0264 0134642 216.3109 142.8260 15.47346399017632 DEORBITSAIL 1 40719U 15032E 17285.66360715 .00000703 00000-0 10876-3 0 9994 2 40719 97.9656 177.8677 0017440 121.9265 238.3643 14.76186756121655 NUDT-PHONESAT 1 40900U 15049B 17285.77203490 .00004853 00000-0 22739-3 0 9993 2 40900 97.4447 292.0769 0014176 167.4565 192.7025 15.20086972114314 XW-2A 1 40903U 15049E 17285.80646347 .00004165 00000-0 10845-3 0 9993 2 40903 97.4138 312.9471 0014127 195.3172 164.7648 15.39373655115730 XW-2C 1 40906U 15049H 17285.83581921 .00001300 00000-0 73451-4 0 9996 2 40906 97.4577 289.0052 0015639 161.1223 199.0592 15.14776250114049 XW-2D 1 40907U 15049J 17285.81067979 .00001429 00000-0 80127-4 0 9997 2 40907 97.4547 288.7160 0015058 159.0286 201.1567 15.14896349114042 LILACSAT-2 1 40908U 15049K 17285.73089313 .00000729 00000-0 44511-4 0 9994 2 40908 97.4652 288.2963 0016662 159.4328 200.7578 15.13262819113942 XW-2F 1 40910U 15049M 17285.80718094 .00002056 00000-0 11056-3 0 9992 2 40910 97.4563 289.5885 0015931 156.4623 203.7342 15.15888990113966 XW-2B 1 40911U 15049N 17285.81988418 .00001384 00000-0 77804-4 0 9990 2 40911 97.4588 289.1590 0014954 159.4011 200.7827 15.14852156113948 DCBB 1 40912U 15049P 17285.76695766 .00001619 00000-0 82638-4 0 9998 2 40912 97.4524 291.7225 0016493 146.9333 299.4463 15.18026198114126 TW-1C 1 40926U 15051B 17285.67683330 .00009202 00000-0 19795-3 0 9999 2 40926 97.2178 324.3896 0013303 100.8408 48.5090 15.44768931115048 TW-1A 1 40928U 15051D 17285.83277302 .00004174 00000-0 11698-3 0 9994 2 40928 97.2164 319.5262 0014055 128.9537 316.2878 15.37059315114765 IO-86 1 40931U 15052B 17285.84292797 .00000807 00000-0 23445-4 0 9998 2 40931 5.9959 113.8056 0012806 108.8040 251.3550 14.76548524110388 GomX-3 1 40949U 98067HA 16292.18357804 .08527750 12374-4 77882-3 0 9992 2 40949 51.6055 106.7696 0006699 286.1344 73.8944 16.38002265 59645 LQSat 1 40958U 15057A 17285.83603555 .00000060 00000-0 17119-4 0 9991 2 40958 97.9691 359.0430 0019515 52.1591 308.1368 14.72991979108430 AO-85 1 40967U 15058D 17285.35965454 .00000550 00000-0 80982-4 0 01161 2 40967 064.7763 223.4244 0179819 035.1319 326.1489 14.75530376017089 ATHENOXAT-1 1 41168U 15077C 17285.67166667 .00002908 00000-0 12585-3 0 9991 2 41168 14.9908 30.9198 0011852 203.8678 12.1097 15.12017303100840 ChubuSat-2 1 41338U 16012B 17285.75435103 .00000672 00000-0 46134-4 0 9997 2 41338 31.0031 85.5397 0013741 143.7051 216.4519 14.99832806 90651 ChubuSat-3 1 41339U 16012C 17285.79977598 .00000507 00000-0 32971-4 0 9992 2 41339 31.0096 84.2093 0013386 149.9252 210.2164 15.00030388 90643 Horyu-4 1 41340U 16012D 17285.78700232 .00001052 00000-0 74197-4 0 9994 2 41340 31.0052 80.9637 0014006 160.6281 199.4889 15.00743589 90697 OUFTI-1 1 41458U 16025C 17285.78408598 .00001762 00000-0 97933-4 0 9999 2 41458 98.1751 330.0633 0170862 256.2757 101.9393 15.03723095 80246 e-st@r-II 1 41459U 16025D 17285.81867748 .00001357 00000-0 76584-4 0 9999 2 41459 98.1707 330.0279 0172593 256.5379 101.6567 15.03508316 80247 AAUSAT4 1 41460U 16025E 17285.67405846 .00003153 00000-0 17072-3 0 9994 2 41460 98.1659 330.0593 0164614 254.8198 103.4767 15.04599937 80252 NODES 1 1 41477U 98067HX 17262.38431888 .17021661 12538-4 46079-3 0 9990 2 41477 51.6074 225.8859 0003017 249.6794 110.5489 16.45625800 77086 NODES 2 1 41478U 98067HY 17266.27255257 .13534231 12598-4 22876-3 0 9990 2 41478 51.6086 206.1528 0005980 262.1280 97.9071 16.47641774 77698 LO-87 1 41557U 16033B 17285.75283221 .00003084 00000-0 11713-3 0 9999 2 41557 97.4559 5.2527 0012828 317.1074 42.9164 15.27521783 76378 NuSat2 1 41558U 16033C 17285.79864684 .00003124 00000-0 11930-3 0 9998 2 41558 97.4586 5.3653 0012271 315.8131 44.2127 15.27343819 76377 Lapan A3 1 41603U 16040E 17285.80680354 .00000168 00000-0 11134-4 0 9991 2 41603 97.4479 346.3040 0014468 30.5653 107.2950 15.19432579 72516 Swayam 1 41607U 16040J 17284.83875513 .00003167 00000-0 14431-3 0 9994 2 41607 97.4479 345.9206 0014920 34.7975 325.4233 15.21310965 72330 Pratham 1 41783U 16059A 17285.74118428 .00000114 00000-0 31496-4 0 9995 2 41783 98.1542 345.8198 0034370 150.4111 209.9045 14.62867597 55781 AlSat 1N 1 41789U 16059G 17285.70061657 .00000161 00000-0 39700-4 0 9996 2 41789 98.1543 346.5084 0029355 143.5793 216.7412 14.64086499 55809 ScatSat 1 41790U 16059H 17285.72784980 .00000041 00000-0 21713-4 0 9993 2 41790 98.2973 332.5165 0019297 128.0188 232.2752 14.50842934 55308 TY-1 1 41844U 16066D 17285.74926817 .00001734 00000-0 77812-4 0 9991 2 41844 97.4070 291.1585 0015548 179.3484 266.3491 15.22430535 51221 CAS-2T 1 41845U 16066E 17285.65699979 .00000103 00000-0 27297-4 0 9999 2 41845 98.7720 304.0756 0365192 259.5732 96.4099 14.37811772 48371 Pegasus-1 1 41846U 16066F 17285.55997609 .00000466 00000-0 82771-4 0 9990 2 41846 098.7767 303.6775 0367843 261.5397 094.3945 14.37148233048332 STARS-C 1 41895U 98067KR 17285.57962750 .00072620 00000-0 57681-3 0 9998 2 41895 051.6344 158.8396 0002326 093.9127 266.2136 15.70580776046378 Tancredo 1 1 41931U 98067KT 17285.78757992 .01034117 58504-3 14669-2 0 9995 2 41931 51.6224 144.2720 0008716 251.7626 108.2438 16.05021890 42151 TO-89 1 41932U 98067KU 17285.56371583 .00029524 00000-0 31814-3 0 9992 2 41932 051.6386 164.0530 0003327 357.3532 002.7445 15.63428351041872 AOBA-V3LOX3 1 41935U 98067KX 17285.26091942 .00034887 00000-0 36318-3 0 9992 2 41935 051.6382 165.0211 0002707 003.2752 356.8260 15.64221960041933 OSNSAT 1 41939U 98067KZ 17285.05020727 .00107630 00000-0 70965-3 0 9999 2 41939 051.6346 158.2795 0000995 338.2023 021.8934 15.74799137041267 EO-88 1 42017U 17008BX 17285.76324692 .00003492 00000-0 14923-3 0 9992 2 42017 97.4825 346.9431 0007197 156.7051 203.4513 15.23509554 36387 HAVELSAT 1 42700U 98067LH 17285.76030048 .00030177 00000-0 37352-3 0 9995 2 42700 51.6384 169.0904 0005663 58.1144 302.0400 15.59806132 23266 SOMP2 1 42701U 98067LJ 17285.77796596 .00026523 00000-0 33447-3 0 9995 2 42701 51.6381 169.2107 0005635 57.8989 302.2550 15.59387779 23251 Columbia 1 42702U 98067LK 17285.83512807 .00082785 00000-0 80762-3 0 9998 2 42702 51.6362 166.5825 0003812 74.2610 285.8805 15.65480813 23223 PHOENIX 1 42706U 98067LP 17285.77005603 .00029016 00000-0 36230-3 0 9995 2 42706 51.6380 169.1606 0001329 79.3235 280.7907 15.59610832 23173 X-CubeSat 1 42707U 98067LQ 17285.76822522 .00029616 00000-0 36796-3 0 9995 2 42707 51.6371 169.1404 0001339 83.9940 276.1206 15.59730902 23166 qbee 1 42708U 98067LR 17285.83722829 .00030343 00000-0 37829-3 0 9990 2 42708 51.6372 168.8516 0001302 79.7316 280.3824 15.59627289 23131 ZA-AeroSat 1 42713U 98067LU 17285.81399156 .00025559 00000-0 33134-3 0 9995 2 42713 51.6382 169.4501 0000978 359.4154 0.6837 15.58689293 22830 LINK 1 42714U 98067LV 17285.76701246 .00037465 00000-0 45022-3 0 9995 2 42714 51.6367 169.1287 0000487 24.2347 335.8670 15.60486386 22949 UPSat 1 42716U 98067LX 17285.81687092 .00036366 00000-0 43947-3 0 9998 2 42716 51.6382 168.7194 0004136 68.6495 291.4939 15.60347625 22971 SpaceCube 1 42717U 98067LY 17285.84986739 .00029064 00000-0 36476-3 0 9998 2 42717 51.6380 168.9386 0004246 65.8811 294.2626 15.59468978 22212 Hoopoe 1 42718U 98067LZ 17285.70505892 .00030443 00000-0 37543-3 0 9990 2 42718 51.6377 169.4717 0004130 65.9775 294.1650 15.59906157 22194 Challenger 1 42721U 98067MA 17285.81484616 .00043922 00000-0 51268-3 0 9992 2 42721 51.6370 168.6958 0005690 40.1232 320.0181 15.61157152 21917 NJUST-1 1 42722U 98067MB 17285.84120776 .00023748 00000-0 31074-3 0 9997 2 42722 51.6385 169.6279 0006640 36.6456 323.4989 15.58468194 21904 UNSW-EC0 1 42723U 98067MC 17285.22369017 .00035159 00000-0 43561-3 0 9996 2 42723 51.6382 172.2575 0006093 36.1938 323.9466 15.59698376 21793 DUTHsat 1 42724U 98067MD 17285.12472109 .00044446 00000-0 52528-3 0 9995 2 42724 51.6379 172.3447 0005070 43.3838 316.7554 15.60831948 21707 LO-90 1 42725U 98067ME 17285.77258275 .00028645 00000-0 36814-3 0 9996 2 42725 51.6384 169.9226 0005588 42.5964 317.5461 15.58840767 21797 nSIGHT1 1 42726U 98067MF 17285.18729498 .00012521 00000-0 17605-3 0 9995 2 42726 51.6394 173.5162 0006282 38.1944 321.9492 15.57073392 21705 QBITO 1 42728U 98067MH 17285.81181588 .00029725 00000-0 37503-3 0 9992 2 42728 51.6396 169.4423 0003325 61.3942 298.7385 15.59319486 21615 Aalto-2 1 42729U 98067MJ 17285.81166327 .00030393 00000-0 38305-3 0 9991 2 42729 51.6386 169.4354 0003249 61.7328 298.3993 15.59336362 21629 SUSat 1 42730U 98067MK 17285.24323798 .00027938 00000-0 35627-3 0 9992 2 42730 51.6382 172.3852 0003313 55.1714 304.9590 15.59071070 21529 i-INSPIRE II 1 42731U 98067ML 17285.21560605 .00035804 00000-0 43930-3 0 9997 2 42731 51.6371 172.1908 0005045 336.7402 23.3362 15.59952272 21570 PolyITAN-2-SAU 1 42732U 98067MM 17285.16587586 .00032787 00000-0 41111-3 0 9995 2 42732 51.6372 172.6097 0005204 335.4362 24.6382 15.59423279 21569 SNUSAT-1 1 42733U 98067MN 17285.11488051 .00027257 00000-0 34748-3 0 9992 2 42733 51.6380 173.0203 0005401 339.2016 20.8757 15.59084566 21555 ExAlta-1 1 42734U 98067MP 17285.28200661 .00033998 00000-0 41956-3 0 9998 2 42734 51.6373 171.8863 0006901 6.1689 353.9388 15.59813876 21530 Aoxiang-1 1 42735U 98067MQ 17285.58042878 .00023510 00000-0 30674-3 0 9990 2 42735 051.6376 170.8844 0007125 031.6253 328.5167 15.58548562022991 BeEagleSat 1 42736U 98067MR 17285.12506095 .00025520 00000-0 32930-3 0 9997 2 42736 51.6373 173.0926 0006893 29.3977 330.7402 15.58792407 21617 Atlantis 1 42737U 98067MS 17285.15750439 .00072298 00000-0 75227-3 0 9994 2 42737 51.6352 171.0471 0004608 36.2246 323.9060 15.63907133 21531 CAS-4B 1 42759U 17034B 17285.68082155 .00000604 00000-0 51096-4 0 9995 2 42759 43.0206 1.7971 0008276 352.4314 138.5603 15.09044622 18057 CAS-4A 1 42761U 17034D 17285.74423247 .00000582 00000-0 49634-4 0 9996 2 42761 43.0200 1.3736 0008940 354.5728 153.2010 15.09119249 18053 UCLSat 1 42765U 17036A 17285.72911619 .00002925 00000-0 13462-3 0 9997 2 42765 97.4372 344.1583 0011066 216.9914 143.0560 15.21072351 17084 NIUSat 1 42766U 17036B 17285.49314778 .00002010 00000-0 96949-4 0 9992 2 42766 097.4375 343.7148 0015578 204.8086 155.2401 15.19759523016907 LituanicaSAT 2 1 42768U 17036D 17285.28084962 .00004331 00000-0 20285-3 0 9997 2 42768 097.4374 343.5369 0015590 208.8505 151.1870 15.20145905016882 InflateSail 1 42770U 17036F 17245.93730135 .99999999 00000-0 73960-1 0 9995 2 42770 097.4262 306.2162 0014869 278.7167 080.9844 16.07641391010932 Aalto 1 1 42775U 17036L 17285.45764857 .00001826 00000-0 87286-4 0 9993 2 42775 097.4372 343.7597 0013702 205.2899 154.7667 15.20216369016856 URSA MAIOR 1 42776U 17036M 17285.71803009 .00001840 00000-0 87811-4 0 9996 2 42776 97.4375 344.0267 0013602 204.5089 155.5501 15.20263137 16895 Max Valier Sat 1 42778U 17036P 17285.22887055 .00002158 00000-0 10124-3 0 9992 2 42778 097.4392 343.6325 0012026 211.3663 148.6856 15.20678343016816 Pegasus 1 42784U 17036V 17285.41009344 .00002470 00000-0 11463-3 0 9991 2 42784 097.4375 343.8241 0011573 218.6495 141.3913 15.20928506016848 NUDATSat 1 42787U 17036Y 17285.39868510 .00003908 00000-0 17816-3 0 9994 2 42787 097.4375 343.8387 0011255 218.3109 141.7328 15.21186796016682 SUCHAI 1 1 42788U 17036Z 17285.40214263 .00003099 00000-0 14240-3 0 9996 2 42788 097.4373 343.8329 0011232 218.4377 141.6060 15.21074678016913 SKCUBE 1 42789U 17036AA 17285.20227028 .00002804 00000-0 12909-3 0 9991 2 42789 097.4371 343.6400 0011071 219.0097 141.0341 15.21091807016804 VZLUSAT 1 1 42790U 17036AB 17285.39297523 .00003822 00000-0 17412-3 0 9995 2 42790 097.4371 343.8406 0010788 218.5134 141.5333 15.21228060016836 VENTA 1 1 42791U 17036AC 17285.39216520 .00002451 00000-0 11293-3 0 9992 2 42791 097.4373 343.8442 0010630 219.2340 140.8126 15.21185425016820 Robusta 1B 1 42792U 17036AD 17285.39046781 .00003021 00000-0 13830-3 0 9996 2 42792 97.4370 343.8431 0010587 219.4007 140.6460 15.21225894 16845 D-SAT 1 42794U 17036AF 17285.77130724 .00000619 00000-0 59534-4 0 9993 2 42794 97.6293 344.2714 0128127 25.7548 334.9976 14.90665658 16863 BIRD-J 1 42820U 98067MU 17285.13162043 .00025097 00000-0 33280-3 0 9991 2 42820 051.6375 173.8861 0001521 322.5560 037.5326 15.58096124015082 BIRD-G 1 42821U 98067MV 17285.13585290 .00023940 00000-0 31927-3 0 9996 2 42821 51.6377 173.9142 0001583 328.1002 31.9894 15.57973115 15046 BIRD-M 1 42822U 98067MW 17285.77788424 .00026060 00000-0 34620-3 0 9990 2 42822 51.6379 170.7030 0001581 335.0012 25.0903 15.58024552 15145 BIRD-B 1 42823U 98067MX 17285.13847663 .00024500 00000-0 32624-3 0 9991 2 42823 51.6382 173.9347 0005031 349.5016 10.5870 15.57989913 15045 BIRD-N 1 42824U 98067MY 17285.14233586 .00024413 00000-0 32607-3 0 9990 2 42824 051.6384 173.9609 0004901 350.7058 009.3843 15.57911985015066 TechnoSat 1 42829U 17042E 17285.61945130 .00000493 00000-0 55729-4 0 9999 2 42829 097.6073 192.0608 0013112 306.9993 053.0025 14.90689864013444 Mayak 1 42830U 17042F 17285.74894100 .00001516 00000-0 15917-3 0 9996 2 42830 97.6080 192.2034 0013399 304.8893 55.1066 14.90855124 13466 OBJECT MZ 1 42910U 98067MZ 17285.26059773 .00020761 00000-0 28903-3 0 9999 2 42910 51.6372 173.9907 0006603 13.9619 346.1554 15.56894803 8669 OBJECT NA 1 42911U 98067NA 17285.83809498 .00025393 00000-0 35032-3 0 9997 2 42911 51.6389 171.1084 0005940 11.4759 348.6367 15.57012001 8735 OBJECT NB 1 42912U 98067NB 17285.84466236 .00022832 00000-0 31858-3 0 9995 2 42912 51.6358 171.1303 0005827 26.5412 333.5877 15.56773441 8755 OBJECT NC 1 42913U 98067NC 17285.57046952 .00033896 00000-0 45124-3 0 9998 2 42913 051.6373 172.3100 0004684 042.6086 317.5269 15.57816813008712 OBJECT ND 1 42914U 98067ND 17285.59040915 .00020093 00000-0 28249-3 0 9998 2 42914 051.6383 172.4498 0005551 018.6499 341.4695 15.56658848008686 /EX
